Tracking 22124 objects as of 24-Jan-2021
HD Live streaming from Space Station
objects crossing your sky now

SECOR 5 (EGRS 5)

Track SECOR 5 (EGRS 5) now!
10-day predictions
SECOR 5 (EGRS 5) is classified as:


NORAD ID: 1506
Int'l Code: 1965-063A
Perigee: 1,142.5 km
Apogee: 2,427.7 km
Inclination: 69.2 °
Period: 122.2 minutes
Semi major axis: 8156 km
RCS: 0.4268 m2 (medium)
Launch date: August 10, 1965
Source: United States (US)
Launch site: WALLOPS ISLAND (WLPIS)
aabbcc
Your satellite tracking list
Your tracking list is empty




NASA's NSSDC Master Catalog

Two Line Element Set (TLE):
1 01506U 65063A   21023.96800081 -.00000056  00000-0 -15156-3 0  9996
2 01506  69.2381 347.0827 0787866 287.8388 124.8990 11.78638836386089
Source of the keplerian elements: AFSPC